Powrót do katalogu

DELTA 1 DEB

AktywnyPO
NORAD 21336·DEBRIS·🇺🇸 United States

Wystrzelony Jun 12, 1975 z Vandenberg Space Force Base

Loading…

Następne Przeloty (najbliższe 24 godziny)

TLE

ŚwieżeSource: Space-Track

Epoka: Sep 14, 2026, 04:47 UTC

1 21336U 75052BE  26257.19987225 -.00000668  00000-0 -10968-2 0  9997
2 21336  99.1932 142.6681 0168502  21.8182 129.1965 13.38154218703001

Śledź DELTA 1 DEB w czasie rzeczywistym z AllMySat

Download on the App Store